EW8956 Weather Reports


Display with metric or nautical units.
time (UTC)temp
F
wind
direction
speed
MPH
gust
MPH
rain 1hr
in
rain 24hr
in
rain mn
in
humidity
%
barometer
mb
20260503004551 54 0 0.0 0.0 0.00 0.00 0.00 57 1013.9
20260503003059 54 0 0.0 1.0 0.00 0.00 0.00 52 1013.6
20260503001556 55 0 0.0 1.0 0.00 0.00 0.00 51 1013.7
20260503000110 55 0 0.0 1.0 0.00 0.00 0.00 51 1013.6
20260502234555 56 0 0.0 3.0 0.00 0.00 0.00 51 1013.3
20260502233050 56 0 0.0 1.0 0.00 0.00 0.00 50 1013.1
20260502231549 57 145 0.0 2.0 0.00 0.00 0.00 48 1012.7
20260502230050 57 0 0.0 2.0 0.00 0.00 0.00 45 1012.8
20260502224549 58 0 0.0 1.0 0.00 0.00 0.00 45 1012.5
20260502223049 58 0 0.0 2.0 0.00 0.00 0.00 44 1012.5
20260502221546 58 0 1.0 5.0 0.00 0.00 0.00 42 1012.1
20260502220051 58 0 0.0 3.0 0.00 0.00 0.00 44 1011.9
20260502214558 59 0 1.0 7.0 0.00 0.00 0.00 44 1011.9
20260502213047 60 298 0.0 7.0 0.00 0.00 0.00 45 1011.8
20260502211553 59 119 1.0 7.0 0.00 0.00 0.00 41 1011.8
20260502210043 58 0 0.0 7.0 0.00 0.00 0.00 41 1011.9
20260502204554 58 133 0.0 4.0 0.00 0.00 0.00 42 1012.1
20260502203113 57 118 2.0 6.0 0.00 0.00 0.00 41 1012.1
20260502201552 57 130 1.0 4.0 0.00 0.00 0.00 40 1012.3
20260502200052 56 115 1.0 8.0 0.00 0.00 0.00 43 1012.5
20260502194559 58 0 0.0 3.0 0.00 0.00 0.00 38 1012.9
20260502193042 56 127 1.0 5.0 0.00 0.00 0.00 42 1013.0
20260502191558 57 101 0.0 3.0 0.00 0.00 0.00 44 1013.2
20260502190054 56 0 0.0 2.0 0.00 0.00 0.00 43 1013.4
20260502184545 56 0 0.0 2.0 0.00 0.00 0.00 45 1013.5
20260502183048 56 0 0.0 2.0 0.00 0.00 0.00 44 1013.5
20260502181607 56 0 0.0 3.0 0.00 0.00 0.00 48 1013.5
20260502080103 53 0 0.0 1.0 0.00 0.00 0.00 81 1013.0
20260502070049 53 0 0.0 0.0 0.00 0.00 0.00 81 1012.7
20260502064556 53 0 0.0 0.0 0.00 0.00 0.00 81 1012.8
20260502063048 53 0 0.0 1.0 0.00 0.00 0.00 81 1013.2
20260502061551 53 0 0.0 2.0 0.00 0.00 0.00 81 1013.3
20260502060046 53 0 0.0 2.0 0.00 0.00 0.00 81 1013.4
20260502054543 53 0 0.0 0.0 0.00 0.00 0.00 80 1012.9
20260502053047 53 0 0.0 0.0 0.00 0.00 0.00 81 1012.8
20260502051543 53 0 0.0 0.0 0.00 0.00 0.00 85 1013.0
20260502050044 53 0 0.0 0.0 0.00 0.00 0.00 79 1013.1
20260502044549 53 0 0.0 0.0 0.00 0.00 0.00 79 1013.2
20260502043045 53 0 0.0 1.0 0.00 0.00 0.00 78 1013.2
20260502041544 53 0 0.0 0.0 0.00 0.00 0.00 78 1013.2
20260502040057 54 0 0.0 0.0 0.00 0.00 0.00 77 1013.3
20260502034551 54 0 0.0 1.0 0.00 0.00 0.00 76 1013.4
20260502033040 54 0 0.0 3.0 0.00 0.00 0.00 76 1013.5
20260502031555 54 0 0.0 1.0 0.00 0.00 0.00 75 1013.6
20260502030047 54 229 0.0 2.0 0.00 0.00 0.00 75 1013.6
20260502024545 55 0 0.0 1.0 0.00 0.00 0.00 75 1013.7
20260502023050 55 0 0.0 4.0 0.00 0.00 0.00 74 1013.5
20260502021544 55 165 0.0 3.0 0.00 0.00 0.00 74 1013.6
20260502020105 55 0 0.0 4.0 0.00 0.00 0.00 73 1013.4
20260502014550 56 0 0.0 3.0 0.00 0.00 0.00 73 1013.7
20260502013043 56 0 0.0 3.0 0.00 0.00 0.00 74 1013.7
20260502011551 57 98 1.0 6.0 0.00 0.00 0.00 73 1013.4
20260502010046 57 0 0.0 6.0 0.00 0.00 0.00 71 1013.4